I2HLY-3 Weather Reports


Display with metric or nautical units.
time (UTC)temp
F
wind
direction
speed
MPH
gust
MPH
rain 1hr
in
rain 24hr
in
rain mn
in
humidity
%
barometer
mb
20260507211727 53 224 0.0 0.0 0.00 0.16 0.04 91 1012.6
20260507210226 53 224 2.0 3.0 0.00 0.16 0.04 90 1012.5
20260507204727 54 225 0.0 0.0 0.00 0.16 0.04 90 1012.2
20260507203233 54 225 0.0 0.0 0.00 0.16 0.04 89 1012.4
20260507201733 55 225 0.0 0.0 0.00 0.16 0.04 87 1012.1
20260507200216 55 225 1.0 2.0 0.00 0.20 0.04 85 1011.9
20260507193222 57 224 0.0 0.0 0.00 0.20 0.04 80 1011.4
20260507191724 59 224 0.0 0.0 0.00 0.20 0.04 77 1011.2
20260507190230 61 224 0.0 0.0 0.00 0.20 0.04 72 1011.0
20260507184731 63 225 0.0 0.0 0.00 0.20 0.04 68 1010.9
20260507183230 65 224 0.0 0.0 0.00 0.20 0.04 60 1010.8
20260507181715 67 224 0.0 0.0 0.00 0.20 0.04 57 1010.7
20260507180218 69 224 0.0 4.0 0.00 0.20 0.04 51 1010.5
20260507174721 71 224 3.0 5.0 0.00 0.20 0.04 49 1010.3
20260507173227 72 236 1.0 5.0 0.00 0.20 0.04 47 1010.2
20260507171730 72 211 2.0 5.0 0.00 0.20 0.04 48 1010.1
20260507170230 72 274 1.0 3.0 0.00 0.20 0.04 46 1010.1
20260507164716 72 254 2.0 5.0 0.00 0.20 0.04 44 1010.0
20260507163219 72 177 1.0 4.0 0.00 0.20 0.04 47 1009.9
20260507161719 71 250 3.0 7.0 0.00 0.20 0.04 48 1009.9
20260507160223 71 247 3.0 7.0 0.00 2.60 0.04 47 1010.0
20260507154722 71 203 4.0 6.0 0.00 2.60 0.04 49 1010.0
20260507153222 71 148 5.0 7.0 0.00 2.60 0.04 47 1010.0
20260507151721 71 181 3.0 8.0 0.00 2.60 0.04 49 1010.0
20260507150228 70 146 5.0 8.0 0.00 3.15 0.04 51 1010.0
20260507144728 71 252 4.0 9.0 0.00 3.15 0.04 49 1010.1
20260507143229 70 179 4.0 9.0 0.00 3.15 0.04 52 1010.2
20260507141733 70 211 4.0 9.0 0.00 3.15 0.04 53 1010.3
20260507140232 69 227 2.0 8.0 0.00 3.27 0.04 54 1010.4
20260507134715 70 298 2.0 8.0 0.00 3.27 0.04 51 1010.4
20260507133221 70 184 5.0 9.0 0.00 3.27 0.04 54 1010.6
20260507131723 69 348 2.0 6.0 0.00 3.27 0.04 55 1010.7
20260507130222 70 173 4.0 9.0 0.00 3.27 0.04 57 1010.8
20260507124728 70 169 5.0 14.0 0.00 3.27 0.04 56 1010.9
20260507123228 70 236 4.0 10.0 0.00 3.27 0.04 58 1010.9
20260507121728 68 157 3.0 10.0 0.00 3.27 0.04 61 1011.0
20260507120234 68 285 2.0 7.0 0.00 3.27 0.04 56 1011.2
20260507114718 67 309 5.0 9.0 0.00 3.27 0.04 59 1011.2
20260507113219 68 264 2.0 5.0 0.00 3.27 0.04 62 1011.4
20260507111727 66 290 3.0 8.0 0.00 3.27 0.04 63 1011.6
20260507110229 65 159 2.0 6.0 0.00 3.27 0.04 64 1011.6
20260507104731 64 302 2.0 5.0 0.00 3.27 0.04 66 1011.8
20260507103216 65 302 2.0 5.0 0.00 3.27 0.04 67 1011.9
20260507101719 65 284 2.0 4.0 0.00 3.27 0.04 67 1012.0
20260507100221 67 232 4.0 9.0 0.00 3.31 0.04 64 1012.0
20260507094724 67 166 4.0 7.0 0.00 3.31 0.04 64 1012.0
20260507093230 66 186 2.0 7.0 0.00 3.31 0.04 66 1012.0
20260507091732 65 200 3.0 5.0 0.00 3.31 0.04 71 1011.9
20260507090232 64 167 2.0 5.0 0.00 3.31 0.04 73 1012.0
20260507084719 63 159 4.0 6.0 0.00 3.31 0.04 76 1012.0
20260507083220 63 161 3.0 5.0 0.04 3.31 0.04 74 1012.0
20260507081723 63 198 0.0 2.0 0.04 3.31 0.04 75 1011.9
20260507080225 61 198 1.0 2.0 0.04 3.31 0.04 80 1011.8
20260507074726 58 198 0.0 2.0 0.04 3.31 0.04 86 1011.7
20260507073227 58 198 2.0 4.0 0.00 3.27 0.03 87 1011.7
20260507071731 58 322 1.0 2.0 0.00 3.27 0.03 86 1011.6
20260507070233 58 322 0.0 0.0 0.00 3.27 0.03 86 1011.4
20260507064715 56 322 0.0 0.0 0.00 3.27 0.03 91 1011.2
20260507063221 55 323 1.0 3.0 0.00 3.27 0.03 91 1011.2
20260507061722 54 322 2.0 3.0 0.00 3.27 0.03 93 1011.1
20260507060224 53 338 2.0 3.0 0.00 3.27 0.03 94 1010.9
20260507054731 52 331 0.0 2.0 0.00 3.27 0.03 94 1010.8
20260507053232 52 331 2.0 3.0 0.04 3.27 0.03 93 1010.7
20260507051734 52 331 1.0 2.0 0.04 3.27 0.03 93 1010.6
20260507050220 52 316 1.0 2.0 0.08 3.27 0.03 93 1010.4
20260507044722 52 316 1.0 2.0 0.08 3.27 0.03 93 1010.3
20260507043221 52 316 0.0 2.0 0.04 3.23 0.02 92 1010.2
20260507041722 52 316 1.0 2.0 0.04 3.23 0.02 91 1010.0
20260507040226 52 316 0.0 4.0 0.04 3.19 0.01 89 1009.9
20260507034728 52 323 1.0 3.0 0.04 3.19 0.01 90 1009.8
20260507033227 53 317 2.0 5.0 0.04 3.19 0.01 89 1009.8
20260507031733 53 314 3.0 5.0 0.04 3.19 0.01 89 1009.8
20260507030234 53 344 2.0 3.0 0.00 3.15 0.00 90 1009.8
20260507024733 53 344 4.0 6.0 0.00 3.15 0.00 89 1009.8
20260507023219 53 325 3.0 5.0 0.00 3.15 0.00 90 1009.9
20260507021721 52 317 4.0 6.0 0.00 3.15 0.00 91 1009.9
20260507020222 52 303 3.0 6.0 0.00 3.15 0.00 93 1010.0
20260507014724 52 314 2.0 3.0 0.00 3.15 0.00 93 1009.9
20260507013225 52 313 0.0 2.0 0.00 3.15 0.00 93 1009.7
20260507011726 53 314 3.0 3.0 0.00 3.15 0.00 93 1009.7
20260507010233 53 321 1.0 2.0 0.00 3.15 0.00 92 1009.6
20260507004735 53 322 0.0 2.0 0.00 3.15 0.00 91 1009.5
20260507003217 54 322 1.0 3.0 0.00 3.15 0.00 90 1009.3
20260507001722 54 323 1.0 2.0 0.00 3.15 0.00 87 1009.4
20260507000223 54 322 2.0 5.0 0.00 3.15 0.00 88 1009.5
20260506234724 53 316 3.0 5.0 0.00 3.15 0.00 91 1009.4
20260506233226 52 19 2.0 3.0 0.00 3.15 0.00 93 1009.4
20260506231732 53 19 1.0 2.0 0.00 3.15 0.00 93 1009.4
20260506230233 53 19 0.0 0.0 0.00 3.15 0.00 92 1009.3
20260506224716 53 19 1.0 1.0 0.00 3.15 0.00 92 1009.2
20260506223222 53 19 1.0 3.0 0.00 3.15 0.00 91 1009.1
20260506221724 53 321 1.0 4.0 0.00 3.15 0.00 91 1009.2
20260506220225 53 325 3.0 3.0 0.00 3.15 0.80 92 1009.1
20260506214729 53 336 3.0 4.0 0.00 3.15 0.80 92 1009.1
20260506213230 53 338 3.0 4.0 0.00 3.15 0.80 93 1009.0